Date,TemperatureHighF,TemperatureAvgF,TemperatureLowF,DewpointHighF,DewpointAvgF,DewpointLowF,HumidityHigh,HumidityAvg,HumidityLow,PressureMaxIn,PressureMinIn,WindSpeedMaxMPH,WindSpeedAvgMPH,GustSpeedMaxMPH,PrecipitationSumIn
2013-8-1,88.9,76.7,65.1,75.2,66.5,57.2,100,75,38,30.09,29.97,10,3,11,0.00
2013-8-2,87.8,77.2,70.7,78.2,72.7,69.0,100,86,66,30.00,29.88,16,4,17,0.00
2013-8-3,87.1,77.3,67.3,79.0,73.6,67.3,100,90,61,30.09,29.91,32,4,34,3.00
2013-8-4,76.8,73.9,71.4,76.7,73.7,71.4,100,99,94,30.12,30.00,15,3,15,0.14
2013-8-5,91.8,80.2,71.8,79.2,74.8,71.8,100,86,57,30.03,29.85,19,4,20,0.04
2013-8-6,92.8,81.9,72.7,80.2,74.9,70.2,100,81,51,29.91,29.82,15,4,16,0.04
2013-8-7,91.8,80.4,73.8,80.9,76.0,71.9,100,88,58,29.97,29.82,15,4,16,0.00
2013-8-8,83.1,74.7,66.9,77.7,72.6,66.9,100,94,73,30.00,29.85,24,4,33,3.90
2013-8-9,84.4,75.4,69.6,77.4,72.2,69.4,100,91,66,30.03,29.91,16,2,17,0.11
2013-8-10,84.2,75.4,68.9,73.6,70.5,67.0,100,86,58,30.09,30.03,18,4,19,0.00
2013-8-11,88.7,77.0,70.3,77.6,73.3,69.8,100,90,55,30.09,30.00,11,2,11,0.00
2013-8-12,82.8,75.1,70.3,80.5,73.3,70.2,100,94,74,30.09,29.97,15,2,16,0.24
2013-8-13,76.6,71.0,65.5,76.7,70.8,65.5,100,99,81,30.06,29.97,18,1,19,0.14
2013-8-14,78.8,69.2,60.8,67.8,61.1,54.0,100,79,45,30.15,30.06,17,4,18,0.00
2013-8-15,79.0,67.2,56.8,62.4,55.9,52.0,100,71,41,30.12,30.00,13,2,14,0.00
2013-8-16,78.6,67.7,62.1,62.1,58.5,54.5,91,74,46,30.09,30.03,12,2,13,0.00
2013-8-17,79.5,64.0,54.1,68.2,58.6,54.1,100,86,46,30.15,30.06,14,2,14,0.00
2013-8-18,83.3,70.4,58.6,72.0,61.6,55.2,100,78,40,30.15,30.06,11,2,12,0.00
2013-8-19,86.2,72.9,62.4,73.2,63.1,53.8,100,76,38,30.12,30.00,10,2,11,0.00
2013-8-20,86.9,73.9,63.3,73.8,64.2,58.2,100,76,40,30.09,30.03,12,2,13,0.00
2013-8-21,89.4,76.5,63.9,73.8,65.2,60.4,100,72,38,30.12,30.03,16,3,17,0.00
2013-8-22,92.3,78.9,65.7,74.8,67.9,62.9,100,72,38,30.12,30.03,13,2,14,0.00
2013-8-23,92.1,80.4,66.7,79.3,68.1,57.2,100,71,33,30.09,30.00,13,2,14,0.00
2013-8-24,90.5,80.6,71.6,75.6,70.0,62.2,100,73,42,30.15,30.06,16,3,17,0.00
2013-8-25,92.3,80.9,70.2,77.2,70.6,63.9,100,74,40,30.21,30.12,11,2,11,0.00
2013-8-26,91.6,79.3,70.7,76.5,70.8,64.7,100,78,44,30.21,30.09,14,3,14,0.00
2013-8-27,89.6,76.5,65.1,74.5,66.6,60.5,100,76,40,30.12,30.03,16,3,17,0.00
2013-8-28,91.4,77.7,66.6,75.9,68.7,64.8,100,78,42,30.09,30.00,17,4,18,0.00
2013-8-29,94.3,79.6,68.4,79.5,69.6,63.5,100,76,37,30.09,30.00,16,3,17,0.00
2013-8-30,94.3,81.6,70.2,78.8,70.0,63.4,100,73,37,30.03,29.88,16,4,17,0.00
2013-8-31,96.4,83.5,72.0,73.9,68.7,63.0,100,66,34,29.94,29.82,19,4,20,0.00